Regional Weather Roundup
Issued by NWS Albany, NY

Home | Current Version | Previous Version | Graphics & Text | Print | Product List | Glossary Off
Versions: 1 2 3 4 5 6 7 8 9 10 11 12 13 14 15 16 17 18 19 20 21 22 23 24 25 26 27 28

000
ASUS41 KALY 242310
RWRALY

NEW YORK STATE HOURLY WEATHER ROUNDUP
NATIONAL WEATHER SERVICE ALBANY NY
700 PM EDT THU APR 24 2014

NOTE: "FAIR" INDICATES FEW OR NO CLOUDS BELOW 12,000 FEET WITH NO
SIGNIFICANT WEATHER AND/OR NO OBSTRUCTIONS TO VISIBILITY.

NYZ032-033-038>043-046>054-057>066-NYZ062>081-250000-
EAST


CITY           SKY/WX    TMP DP  RH WIND       PRES   REMARKS
ALBANY         CLEAR     55  10  16 NW20G26   29.92R
GLENS FALLS    CLEAR     56  13  18 NW14      29.93R
POUGHKEEPSIE   CLEAR     57  15  19 NW15      29.91R
NEWBURGH       CLEAR     55  16  21 NW17G35   29.92R
MONTGOMERY     CLEAR     55  12  18 NW16G26   29.92R
WHITE PLAINS   CLEAR     57  13  17 NW14G22   29.89R
ISLIP          PTCLDY    59  13  16 NW20      29.86R
NEW YORK CITY  PTCLDY    58  15  18 NW18G32   29.90R
CENTRAL PARK   CLEAR     60  12  15 W3        29.93R
$$

NYZ005>009-017-018-044>046-055-056-250000-
CENTRAL


CITY           SKY/WX    TMP DP  RH WIND       PRES   REMARKS
FULTON         CLEAR     47  18  31 W12       30.07R
SYRACUSE       PTCLDY    50  18  28 NW9       30.06R
ROME           CLEAR     48  19  31 NW18      30.03R
ELMIRA         CLEAR     51  18  27 NE12      30.04R
BINGHAMTON     CLEAR     47  18  31 NW14G20   30.02R
MONTICELLO     CLEAR     48  12  23 NW16G24   29.97R
$$

NYZ026>034-041>043-250000-
NORTH


CITY           SKY/WX    TMP DP  RH WIND       PRES   REMARKS
WATERTOWN      CLEAR     44  25  47 SW7       30.06R
FORT DRUM      NOT AVBL
MASSENA        CLEAR     51  15  23 N10       30.02R
SARANAC LAKE   CLEAR     44  14  29 NW9       29.95R
PLATTSBURGH    CLEAR     51  23  33 NW14G22   29.95R
$$

NYZ001>004-010>016-019>021-250000-
WEST


CITY           SKY/WX    TMP DP  RH WIND       PRES   REMARKS
NIAGARA FALLS  MOSUNNY   52  16  24 N6        30.05F
BUFFALO        MOSUNNY   52  19  27 N8        30.06F
DUNKIRK        SUNNY     49  20  31 N5        30.07F
JAMESTOWN      SUNNY     48  18  29 N6        30.04S
WELLSVILLE     SUNNY     50  13  22 NW9       30.04R
ROCHESTER      MOSUNNY   52  16  24 NW9       30.07S
PENN YAN       CLEAR     51  17  26 NW8       30.06S
$$

             KEY
       WCI = WIND CHILL INDEX
       VSB = VISIBILITY
       HX  = HEAT INDEX
$$



USA.gov is the U.S. government's official web portal to all federal, state and local government web resources and services.